TimeCST,TemperatureF,Dew PointF,Humidity,Sea Level PressureIn,VisibilityMPH,Wind Direction,Wind SpeedMPH,Gust SpeedMPH,PrecipitationIn,Events,Conditions,WindDirDegrees,DateUTC
12:15 AM,12.2,6.8,79,30.10,10.0,WNW,6.9,-,N/A,,Overcast,300,2013-01-26 06:15:00
12:35 AM,12.2,6.8,79,30.11,10.0,WNW,4.6,-,N/A,Snow,Light Snow,300,2013-01-26 06:35:00
12:55 AM,12.2,6.8,79,30.12,10.0,NW,5.8,-,N/A,Snow,Light Snow,310,2013-01-26 06:55:00
1:15 AM,12.2,6.8,79,30.13,10.0,NW,5.8,-,N/A,Snow,Light Snow,310,2013-01-26 07:15:00
1:35 AM,10.4,5.0,79,30.13,10.0,WNW,4.6,-,N/A,Snow,Light Snow,300,2013-01-26 07:35:00
1:55 AM,10.4,5.0,79,30.15,10.0,NW,4.6,-,N/A,Snow,Light Snow,310,2013-01-26 07:55:00
2:15 AM,10.4,5.0,79,30.16,10.0,WNW,4.6,-,N/A,Snow,Light Snow,300,2013-01-26 08:15:00
2:35 AM,10.4,5.0,79,30.15,10.0,NW,5.8,-,N/A,Snow,Light Snow,310,2013-01-26 08:35:00
2:55 AM,10.4,5.0,79,30.16,10.0,WNW,4.6,-,N/A,Snow,Light Snow,300,2013-01-26 08:55:00
3:15 AM,12.2,6.8,79,30.16,10.0,NW,3.5,-,N/A,Snow,Light Snow,320,2013-01-26 09:15:00
3:35 AM,10.4,5.0,79,30.16,7.0,NW,4.6,-,N/A,Snow,Light Snow,320,2013-01-26 09:35:00
3:55 AM,10.4,5.0,79,30.16,5.0,NW,4.6,-,N/A,Snow,Light Snow,310,2013-01-26 09:55:00
4:15 AM,10.4,5.0,79,30.16,5.0,Calm,Calm,-,N/A,Snow,Light Snow,0,2013-01-26 10:15:00
4:35 AM,10.4,5.0,79,30.16,5.0,Calm,Calm,-,N/A,Snow,Light Snow,0,2013-01-26 10:35:00
4:55 AM,10.4,5.0,79,30.17,7.0,Calm,Calm,-,N/A,Snow,Light Snow,0,2013-01-26 10:55:00
5:15 AM,10.4,5.0,79,30.17,5.0,Calm,Calm,-,N/A,Snow,Light Snow,0,2013-01-26 11:15:00
5:35 AM,10.4,5.0,79,30.18,5.0,Calm,Calm,-,N/A,Snow,Light Snow,0,2013-01-26 11:35:00
5:55 AM,8.6,3.2,79,30.19,4.0,Calm,Calm,-,N/A,Snow,Light Snow,0,2013-01-26 11:55:00
6:15 AM,10.4,5.0,79,30.19,3.0,Calm,Calm,-,N/A,Snow,Light Snow,0,2013-01-26 12:15:00
6:35 AM,10.4,5.0,79,30.21,4.0,Calm,Calm,-,N/A,Snow,Light Snow,0,2013-01-26 12:35:00
6:55 AM,10.4,5.0,79,30.21,5.0,Calm,Calm,-,N/A,Snow,Light Snow,0,2013-01-26 12:55:00
7:15 AM,10.4,5.0,79,30.21,4.0,Calm,Calm,-,N/A,Snow,Light Snow,0,2013-01-26 13:15:00
7:35 AM,10.4,5.0,79,30.21,5.0,Calm,Calm,-,N/A,,Haze,0,2013-01-26 13:35:00
7:55 AM,10.4,5.0,79,30.21,5.0,NNE,3.5,-,N/A,Snow,Light Snow,20,2013-01-26 13:55:00
8:15 AM,10.4,5.0,79,30.23,5.0,NW,4.6,-,N/A,Snow,Light Snow,310,2013-01-26 14:15:00
8:35 AM,10.4,5.0,79,30.24,7.0,NNW,3.5,-,N/A,Snow,Light Snow,340,2013-01-26 14:35:00
8:55 AM,10.4,5.0,79,30.24,10.0,North,4.6,-,N/A,Snow,Light Snow,360,2013-01-26 14:55:00
9:15 AM,10.4,5.0,79,30.25,7.0,North,5.8,-,N/A,Snow,Light Snow,350,2013-01-26 15:15:00
9:35 AM,12.2,6.8,79,30.25,7.0,NNW,4.6,-,N/A,Snow,Light Snow,340,2013-01-26 15:35:00
9:55 AM,12.2,6.8,79,30.25,7.0,Calm,Calm,-,N/A,,Clear,0,2013-01-26 15:55:00
10:15 AM,14.0,8.6,79,30.26,10.0,NE,4.6,-,N/A,,Clear,40,2013-01-26 16:15:00
10:35 AM,17.6,8.6,68,30.27,10.0,NNE,4.6,-,N/A,,Clear,30,2013-01-26 16:35:00
10:55 AM,17.6,8.6,68,30.27,10.0,North,3.5,-,N/A,,Scattered Clouds,10,2013-01-26 16:55:00
11:15 AM,17.6,8.6,68,30.25,10.0,Calm,Calm,-,N/A,,Clear,0,2013-01-26 17:15:00
11:35 AM,17.6,8.6,68,30.25,10.0,SE,3.5,-,N/A,,Clear,140,2013-01-26 17:35:00
11:55 AM,19.4,10.4,68,30.25,10.0,Calm,Calm,-,N/A,,Clear,0,2013-01-26 17:55:00
12:15 PM,19.4,10.4,68,30.24,10.0,SW,3.5,-,N/A,,Clear,220,2013-01-26 18:15:00
12:35 PM,19.4,10.4,68,30.24,10.0,SSW,4.6,-,N/A,,Clear,200,2013-01-26 18:35:00
12:55 PM,19.4,8.6,63,30.24,10.0,Calm,Calm,-,N/A,,Clear,0,2013-01-26 18:55:00
1:15 PM,19.4,8.6,63,30.24,10.0,SSW,4.6,-,N/A,,Clear,200,2013-01-26 19:15:00
1:35 PM,19.4,8.6,63,30.23,10.0,South,3.5,-,N/A,,Scattered Clouds,180,2013-01-26 19:35:00
1:55 PM,21.2,10.4,63,30.24,10.0,South,5.8,-,N/A,,Scattered Clouds,190,2013-01-26 19:55:00
2:15 PM,23.0,12.2,63,30.23,10.0,South,5.8,-,N/A,,Mostly Cloudy,190,2013-01-26 20:15:00
2:35 PM,21.2,10.4,63,30.24,10.0,South,5.8,-,N/A,,Overcast,190,2013-01-26 20:35:00
2:55 PM,21.2,10.4,63,30.24,10.0,South,3.5,-,N/A,,Overcast,190,2013-01-26 20:55:00
3:15 PM,21.2,10.4,63,30.22,10.0,South,3.5,-,N/A,,Mostly Cloudy,170,2013-01-26 21:15:00
3:35 PM,21.2,10.4,63,30.23,10.0,South,4.6,-,N/A,,Mostly Cloudy,190,2013-01-26 21:35:00
3:55 PM,19.4,10.4,68,30.22,10.0,South,3.5,-,N/A,,Overcast,170,2013-01-26 21:55:00
4:15 PM,21.2,10.4,63,30.22,10.0,South,6.9,-,N/A,,Overcast,170,2013-01-26 22:15:00
4:35 PM,19.4,10.4,68,30.22,10.0,South,5.8,-,N/A,,Mostly Cloudy,180,2013-01-26 22:35:00
4:55 PM,19.4,10.4,68,30.21,10.0,South,8.1,-,N/A,,Scattered Clouds,170,2013-01-26 22:55:00
5:15 PM,19.4,10.4,68,30.21,10.0,South,4.6,-,N/A,,Scattered Clouds,170,2013-01-26 23:15:00
5:35 PM,19.4,10.4,68,30.20,10.0,South,3.5,-,N/A,,Clear,170,2013-01-26 23:35:00
5:55 PM,19.4,10.4,68,30.20,10.0,SSE,5.8,-,N/A,,Clear,160,2013-01-26 23:55:00
6:15 PM,19.4,10.4,68,30.20,10.0,South,10.4,-,N/A,,Scattered Clouds,180,2013-01-27 00:15:00
6:35 PM,19.4,10.4,68,30.20,10.0,South,5.8,-,N/A,,Mostly Cloudy,170,2013-01-27 00:35:00
6:55 PM,19.4,10.4,68,30.20,10.0,South,5.8,-,N/A,,Overcast,170,2013-01-27 00:55:00
7:15 PM,19.4,10.4,68,30.20,10.0,South,6.9,-,N/A,,Overcast,170,2013-01-27 01:15:00
7:35 PM,19.4,10.4,68,30.19,10.0,South,9.2,-,N/A,,Overcast,170,2013-01-27 01:35:00
7:55 PM,19.4,10.4,68,30.17,10.0,South,6.9,-,N/A,,Overcast,170,2013-01-27 01:55:00
8:15 PM,19.4,10.4,68,30.16,10.0,SSE,10.4,-,N/A,,Overcast,160,2013-01-27 02:15:00
8:35 PM,19.4,10.4,68,30.17,10.0,South,5.8,-,N/A,,Overcast,170,2013-01-27 02:35:00
8:55 PM,19.4,10.4,68,30.17,10.0,SSE,9.2,-,N/A,,Scattered Clouds,160,2013-01-27 02:55:00
9:15 PM,19.4,10.4,68,30.18,10.0,South,6.9,-,N/A,,Mostly Cloudy,170,2013-01-27 03:15:00
9:35 PM,19.4,10.4,68,30.18,10.0,South,5.8,-,N/A,,Mostly Cloudy,180,2013-01-27 03:35:00
9:55 PM,19.4,10.4,68,30.19,10.0,South,6.9,-,N/A,,Mostly Cloudy,180,2013-01-27 03:55:00
10:15 PM,19.4,10.4,68,30.19,10.0,South,9.2,-,N/A,,Scattered Clouds,170,2013-01-27 04:15:00
10:35 PM,19.4,10.4,68,30.19,10.0,South,9.2,-,N/A,,Mostly Cloudy,170,2013-01-27 04:35:00
10:55 PM,19.4,10.4,68,30.18,10.0,South,8.1,-,N/A,,Overcast,170,2013-01-27 04:55:00
11:15 PM,19.4,10.4,68,30.18,10.0,South,8.1,-,N/A,,Overcast,170,2013-01-27 05:15:00
11:35 PM,21.2,10.4,63,30.18,10.0,South,9.2,-,N/A,,Overcast,170,2013-01-27 05:35:00
11:55 PM,21.2,10.4,63,30.16,10.0,SSE,8.1,17.3,N/A,,Overcast,160,2013-01-27 05:55:00